• In Uzbekistan
  • List of Countries
  • For 7 days
  • Water Temperature
  • Satellite Maps
  • Weather Map
  • Weather Widgets
  • user-avatar
    Login

    Hourly Weather Gisborne

    Today, 20 February, Wednesday

    Time Temperature Precipitation Wind Pressure Humidity
    00:00 +19°C° 0 mm 3 mps 758 mmHg 67%
    01:00 +19°C° 0 mm 3 mps 758 mmHg 71%
    02:00 +19°C° 0 mm 2 mps 758 mmHg 74%
    03:00 +19°C° 0 mm 2 mps 758 mmHg 78%
    04:00 +18°C° 0 mm 2 mps 758 mmHg 80%
    05:00 +18°C° 0 mm 2 mps 758 mmHg 82%
    06:00 +18°C° 0 mm 2 mps 758 mmHg 82%
    07:00 +20°C° 0 mm 2 mps 758 mmHg 71%
    08:00 +24°C° 0 mm 2 mps 758 mmHg 59%
    09:00 +26°C° 0 mm 2 mps 758 mmHg 48%
    10:00 +28°C° 0 mm 2 mps 758 mmHg 41%
    11:00 +30°C° 0 mm 2 mps 758 mmHg 35%
    12:00 +34°C° 0 mm 3 mps 757 mmHg 30%
    13:00 +34°C° 0 mm 3 mps 757 mmHg 30%
    14:00 +34°C° 0 mm 3 mps 757 mmHg 31%
    15:00 +34°C° 0 mm 3 mps 757 mmHg 31%
    16:00 +33°C° 0 mm 3 mps 757 mmHg 35%
    17:00 +31°C° 0 mm 3 mps 757 mmHg 40%
    18:00 +29°C° 0 mm 3 mps 757 mmHg 48%
    19:00 +27°C° 0 mm 3 mps 758 mmHg 56%
    20:00 +25°C° 0 mm 3 mps 759 mmHg 64%
    21:00 +24°C° 0 mm 3 mps 759 mmHg 72%
    22:00 +22°C° 0 mm 3 mps 759 mmHg 76%
    23:00 +21°C° 0 mm 2 mps 760 mmHg 80%

    Tomorrow, 21 February, Thursday

    Time Temperature Precipitation Wind Pressure Humidity
    00:00 +21°C° 0 mm 1 mps 760 mmHg 87%
    01:00 +20°C° 0 mm 1 mps 760 mmHg 89%
    02:00 +20°C° 0 mm 1 mps 760 mmHg 91%
    03:00 +20°C° 0 mm 1 mps 760 mmHg 93%
    04:00 +20°C° 0 mm 1 mps 760 mmHg 93%
    05:00 +20°C° 0 mm 1 mps 760 mmHg 93%
    06:00 +20°C° 0 mm 1 mps 761 mmHg 93%
    07:00 +22°C° 0 mm 1 mps 761 mmHg 82%
    08:00 +24°C° 0 mm 2 mps 761 mmHg 71%
    09:00 +26°C° 0 mm 2 mps 761 mmHg 60%
    10:00 +27°C° 0.2 mm 2 mps 761 mmHg 62%
    11:00 +28°C° 0.2 mm 3 mps 761 mmHg 63%
    12:00 +28°C° 0.2 mm 3 mps 761 mmHg 64%
    13:00 +28°C° 1.2 mm 3 mps 761 mmHg 69%
    14:00 +27°C° 1.2 mm 3 mps 760 mmHg 74%
    15:00 +27°C° 1.2 mm 3 mps 760 mmHg 78%
    16:00 +27°C° 0.2 mm 3 mps 760 mmHg 71%
    17:00 +27°C° 0.2 mm 3 mps 760 mmHg 63%
    18:00 +27°C° 0.2 mm 3 mps 760 mmHg 56%
    19:00 +25°C° 0 mm 3 mps 760 mmHg 60%
    20:00 +24°C° 0 mm 2 mps 760 mmHg 64%
    21:00 +21°C° 0 mm 2 mps 761 mmHg 69%
    22:00 +21°C° 0 mm 2 mps 761 mmHg 72%
    23:00 +20°C° 0 mm 2 mps 761 mmHg 76%

    Day after tomorrow, 22 February, Friday

    Time Temperature Precipitation Wind Pressure Humidity
    00:00 +20°C° 0 mm 2 mps 761 mmHg 80%
    01:00 +20°C° 0 mm 2 mps 760 mmHg 80%
    02:00 +20°C° 0 mm 2 mps 760 mmHg 81%
    03:00 +20°C° 0 mm 2 mps 760 mmHg 81%
    04:00 +20°C° 0 mm 2 mps 760 mmHg 82%
    05:00 +20°C° 0 mm 2 mps 759 mmHg 82%
    06:00 +20°C° 0 mm 2 mps 759 mmHg 82%
    07:00 +21°C° 0 mm 2 mps 759 mmHg 74%
    08:00 +24°C° 0 mm 3 mps 759 mmHg 67%
    09:00 +25°C° 0 mm 3 mps 759 mmHg 60%
    10:00 +26°C° 0 mm 3 mps 759 mmHg 54%
    11:00 +28°C° 0 mm 3 mps 759 mmHg 49%
    12:00 +29°C° 0 mm 3 mps 759 mmHg 44%
    13:00 +29°C° 0 mm 3 mps 758 mmHg 45%
    14:00 +29°C° 0 mm 3 mps 757 mmHg 46%
    15:00 +28°C° 0 mm 4 mps 757 mmHg 46%
    16:00 +27°C° 0 mm 4 mps 757 mmHg 52%
    17:00 +26°C° 0 mm 4 mps 756 mmHg 58%
    18:00 +24°C° 0 mm 3 mps 756 mmHg 63%
    19:00 +24°C° 0 mm 3 mps 756 mmHg 67%
    20:00 +22°C° 0 mm 3 mps 756 mmHg 71%
    21:00 +21°C° 0 mm 3 mps 756 mmHg 75%
    22:00 +21°C° 0 mm 3 mps 756 mmHg 74%
    23:00 +21°C° 0 mm 3 mps 756 mmHg 74%

    23 February, Saturday

    Time Temperature Precipitation Wind Pressure Humidity
    00:00 +21°C° 0 mm 3 mps 755 mmHg 74%
    01:00 +21°C° 0 mm 3 mps 755 mmHg 76%
    02:00 +21°C° 0 mm 2 mps 754 mmHg 78%
    03:00 +21°C° 0 mm 2 mps 753 mmHg 80%
    04:00 +21°C° 0 mm 2 mps 753 mmHg 81%
    05:00 +20°C° 0 mm 2 mps 752 mmHg 81%
    06:00 +20°C° 0 mm 2 mps 751 mmHg 81%
    07:00 +23°C° 0.2 mm 2 mps 751 mmHg 78%
    08:00 +24°C° 0.2 mm 2 mps 751 mmHg 76%
    09:00 +25°C° 0.2 mm 2 mps 750 mmHg 73%
    10:00 +25°C° 0.4 mm 2 mps 749 mmHg 74%
    11:00 +25°C° 0.4 mm 2 mps 749 mmHg 76%
    12:00 +25°C° 0.4 mm 2 mps 748 mmHg 78%
    13:00 +27°C° 0.2 mm 2 mps 747 mmHg 69%
    14:00 +29°C° 0.2 mm 2 mps 746 mmHg 61%
    15:00 +30°C° 0.2 mm 1 mps 745 mmHg 52%
    16:00 +29°C° 0 mm 2 mps 745 mmHg 54%
    17:00 +28°C° 0 mm 2 mps 745 mmHg 56%
    18:00 +27°C° 0 mm 2 mps 745 mmHg 57%
    19:00 +25°C° 0.2 mm 2 mps 745 mmHg 69%
    20:00 +23°C° 0.2 mm 2 mps 745 mmHg 80%
    21:00 +19°C° 0.2 mm 2 mps 746 mmHg 91%
    22:00 +19°C° 0 mm 3 mps 746 mmHg 87%
    23:00 +18°C° 0 mm 3 mps 745 mmHg 82%

    24 February, Sunday

    Time Temperature Precipitation Wind Pressure Humidity
    00:00 +17°C° 0 mm 4 mps 745 mmHg 78%
    01:00 +17°C° 0 mm 3 mps 745 mmHg 75%
    02:00 +17°C° 0 mm 2 mps 744 mmHg 73%
    03:00 +17°C° 0 mm 2 mps 744 mmHg 71%
    04:00 +16°C° 0.8 mm 2 mps 743 mmHg 78%
    05:00 +15°C° 0.8 mm 2 mps 743 mmHg 85%
    06:00 +14°C° 0.8 mm 2 mps 742 mmHg 93%
    07:00 +14°C° 0.1 mm 3 mps 742 mmHg 81%
    08:00 +17°C° 0.1 mm 3 mps 742 mmHg 69%
    09:00 +18°C° 0.1 mm 4 mps 742 mmHg 58%
    10:00 +20°C° 0 mm 4 mps 742 mmHg 49%
    11:00 +22°C° 0 mm 4 mps 742 mmHg 40%
    12:00 +23°C° 0 mm 4 mps 741 mmHg 32%
    13:00 +22°C° 0.3 mm 4 mps 742 mmHg 43%
    14:00 +20°C° 0.3 mm 5 mps 742 mmHg 55%
    15:00 +17°C° 0.3 mm 5 mps 742 mmHg 66%
    16:00 +16°C° 2 mm 6 mps 742 mmHg 74%
    17:00 +15°C° 2 mm 7 mps 743 mmHg 83%
    18:00 +13°C° 2 mm 8 mps 744 mmHg 91%
    19:00 +13°C° 0.8 mm 8 mps 745 mmHg 89%
    20:00 +13°C° 0.8 mm 8 mps 746 mmHg 87%
    21:00 +13°C° 0.8 mm 8 mps 748 mmHg 85%
    22:00 +14°C° 0.4 mm 7 mps 748 mmHg 84%
    23:00 +14°C° 0.4 mm 7 mps 749 mmHg 82%

    25 February, Monday

    Time Temperature Precipitation Wind Pressure Humidity
    00:00 +14°C° 0.4 mm 7 mps 750 mmHg 81%
    01:00 +12°C° 0.3 mm 7 mps 750 mmHg 80%
    02:00 +12°C° 0.3 mm 7 mps 750 mmHg 79%
    03:00 +12°C° 0.3 mm 7 mps 751 mmHg 78%
    04:00 +12°C° 0.6 mm 7 mps 751 mmHg 80%
    05:00 +12°C° 0.6 mm 7 mps 752 mmHg 82%
    06:00 +12°C° 0.6 mm 8 mps 753 mmHg 85%
    07:00 +12°C° 1 mm 8 mps 753 mmHg 85%
    08:00 +12°C° 1 mm 8 mps 754 mmHg 85%
    09:00 +12°C° 1 mm 8 mps 755 mmHg 85%
    10:00 +13°C° 0.9 mm 8 mps 755 mmHg 83%
    11:00 +14°C° 0.9 mm 7 mps 756 mmHg 81%
    12:00 +14°C° 0.9 mm 7 mps 756 mmHg 80%
    13:00 +14°C° 1 mm 7 mps 756 mmHg 81%
    14:00 +14°C° 1 mm 7 mps 756 mmHg 82%
    15:00 +14°C° 1 mm 7 mps 756 mmHg 83%
    16:00 +12°C° 0.8 mm 7 mps 757 mmHg 85%
    17:00 +12°C° 0.8 mm 7 mps 757 mmHg 86%
    18:00 +13°C° 0.8 mm 6 mps 758 mmHg 87%
    19:00 +11°C° 1 mm 6 mps 759 mmHg 88%
    20:00 +11°C° 1 mm 6 mps 759 mmHg 89%
    21:00 +11°C° 1 mm 6 mps 760 mmHg 90%
    22:00 +11°C° 0.6 mm 6 mps 760 mmHg 89%
    23:00 +12°C° 0.6 mm 5 mps 760 mmHg 89%
    Show more